TimeCDT,TemperatureF,Dew PointF,Humidity,Sea Level PressureIn,VisibilityMPH,Wind Direction,Wind SpeedMPH,Gust SpeedMPH,PrecipitationIn,Events,Conditions,WindDirDegrees,DateUTC
12:13 AM,35.6,28.4,75,29.88,10.0,West,11.5,-,N/A,,Overcast,280,2012-10-11 05:13:00
12:34 AM,35.6,28.4,75,29.89,10.0,WNW,13.8,-,N/A,,Scattered Clouds,290,2012-10-11 05:34:00
12:53 AM,35.6,28.4,75,29.89,10.0,WNW,16.1,-,N/A,,Clear,300,2012-10-11 05:53:00
1:14 AM,35.6,28.4,75,29.89,10.0,WNW,15.0,21.9,N/A,,Clear,300,2012-10-11 06:14:00
1:34 AM,35.6,26.6,70,29.90,10.0,WNW,13.8,-,N/A,,Clear,300,2012-10-11 06:34:00
2:14 AM,33.8,26.6,75,29.91,10.0,WNW,13.8,-,N/A,,Clear,300,2012-10-11 07:14:00
2:34 AM,33.8,26.6,75,29.91,10.0,WNW,15.0,19.6,N/A,,Clear,300,2012-10-11 07:34:00
2:53 AM,33.8,26.6,75,29.91,10.0,WNW,15.0,-,N/A,,Clear,290,2012-10-11 07:53:00
3:13 AM,33.8,26.6,75,29.92,10.0,WNW,16.1,-,N/A,,Clear,300,2012-10-11 08:13:00
3:34 AM,33.8,26.6,75,29.92,10.0,WNW,18.4,25.3,N/A,,Clear,300,2012-10-11 08:34:00
3:53 AM,33.8,26.6,75,29.92,10.0,NW,18.4,24.2,N/A,,Clear,310,2012-10-11 08:53:00
4:13 AM,33.8,26.6,75,29.93,10.0,NW,19.6,26.5,N/A,,Clear,310,2012-10-11 09:13:00
4:34 AM,33.8,26.6,75,29.93,10.0,WNW,20.7,27.6,N/A,,Clear,300,2012-10-11 09:34:00
4:53 AM,33.8,26.6,75,29.95,10.0,WNW,18.4,-,N/A,,Scattered Clouds,300,2012-10-11 09:53:00
5:34 AM,32.0,26.6,80,29.96,10.0,WNW,18.4,-,N/A,,Scattered Clouds,300,2012-10-11 10:34:00
5:53 AM,32.0,26.6,80,29.96,10.0,WNW,18.4,26.5,N/A,,Mostly Cloudy,300,2012-10-11 10:53:00
6:13 AM,32.0,26.6,80,29.98,10.0,WNW,16.1,21.9,N/A,,Mostly Cloudy,300,2012-10-11 11:13:00
6:33 AM,32.0,26.6,80,29.98,10.0,NW,16.1,-,N/A,,Mostly Cloudy,310,2012-10-11 11:33:00
6:53 AM,32.0,26.6,80,29.99,10.0,WNW,17.3,24.2,N/A,,Overcast,300,2012-10-11 11:53:00
7:33 AM,33.8,26.6,75,30.01,10.0,WNW,18.4,24.2,N/A,,Overcast,300,2012-10-11 12:33:00
7:53 AM,32.0,26.6,80,30.01,10.0,WNW,20.7,24.2,N/A,,Scattered Clouds,300,2012-10-11 12:53:00
8:14 AM,32.0,26.6,80,30.03,10.0,WNW,19.6,24.2,N/A,,Mostly Cloudy,290,2012-10-11 13:14:00
8:33 AM,32.0,26.6,80,30.03,10.0,WNW,20.7,-,N/A,,Overcast,290,2012-10-11 13:33:00
8:53 AM,33.8,26.6,75,30.04,10.0,WNW,18.4,-,N/A,,Mostly Cloudy,290,2012-10-11 13:53:00
9:14 AM,32.0,26.6,80,30.05,10.0,WNW,19.6,-,N/A,,Scattered Clouds,290,2012-10-11 14:14:00
9:33 AM,33.8,26.6,75,30.06,10.0,WNW,21.9,25.3,N/A,,Scattered Clouds,290,2012-10-11 14:33:00
9:53 AM,33.8,26.6,75,30.07,10.0,WNW,21.9,28.8,N/A,,Mostly Cloudy,300,2012-10-11 14:53:00
10:13 AM,33.8,26.6,75,30.09,10.0,NW,18.4,26.5,N/A,,Overcast,310,2012-10-11 15:13:00
10:34 AM,33.8,26.6,75,30.10,10.0,WNW,17.3,-,N/A,,Mostly Cloudy,300,2012-10-11 15:34:00
10:53 AM,33.8,26.6,75,30.10,10.0,WNW,21.9,27.6,N/A,,Scattered Clouds,300,2012-10-11 15:53:00
11:14 AM,33.8,26.6,75,30.11,10.0,WNW,20.7,24.2,N/A,,Mostly Cloudy,290,2012-10-11 16:14:00
11:33 AM,33.8,26.6,75,30.12,10.0,WNW,18.4,21.9,N/A,,Overcast,300,2012-10-11 16:33:00
11:53 AM,35.6,26.6,70,30.13,10.0,NW,17.3,24.2,N/A,,Overcast,310,2012-10-11 16:53:00
12:14 PM,35.6,26.6,70,30.15,10.0,NW,19.6,-,N/A,,Overcast,320,2012-10-11 17:14:00
12:33 PM,35.6,26.6,70,30.15,10.0,NW,16.1,23.0,N/A,,Overcast,320,2012-10-11 17:33:00
12:54 PM,35.6,26.6,70,30.15,10.0,WNW,19.6,23.0,N/A,,Overcast,300,2012-10-11 17:54:00
1:13 PM,35.6,26.6,70,30.15,10.0,NW,16.1,-,N/A,,Overcast,310,2012-10-11 18:13:00
1:34 PM,35.6,26.6,70,30.15,10.0,WNW,20.7,-,N/A,,Overcast,300,2012-10-11 18:34:00
1:53 PM,35.6,26.6,70,30.16,10.0,WNW,18.4,-,N/A,,Overcast,300,2012-10-11 18:53:00
2:14 PM,35.6,26.6,70,30.16,10.0,WNW,18.4,23.0,N/A,,Overcast,300,2012-10-11 19:14:00
2:33 PM,37.4,26.6,65,30.16,10.0,NW,18.4,24.2,N/A,,Overcast,310,2012-10-11 19:33:00
3:13 PM,37.4,26.6,65,30.17,10.0,WNW,21.9,28.8,N/A,,Overcast,300,2012-10-11 20:13:00
3:34 PM,37.4,26.6,65,30.18,10.0,WNW,19.6,-,N/A,,Overcast,300,2012-10-11 20:34:00
3:53 PM,37.4,26.6,65,30.18,10.0,WNW,24.2,28.8,N/A,,Overcast,290,2012-10-11 20:53:00
4:14 PM,39.2,26.6,61,30.18,10.0,WNW,20.7,26.5,N/A,,Overcast,300,2012-10-11 21:14:00
4:33 PM,37.4,30.2,75,30.19,10.0,NNW,21.9,32.2,N/A,,Overcast,330,2012-10-11 21:33:00
4:54 PM,37.4,28.4,70,30.21,10.0,NW,19.6,25.3,N/A,,Scattered Clouds,310,2012-10-11 21:54:00
5:13 PM,37.4,28.4,70,30.21,10.0,WNW,19.6,27.6,N/A,,Scattered Clouds,300,2012-10-11 22:13:00
5:34 PM,37.4,28.4,70,30.22,10.0,NW,19.6,25.3,N/A,,Clear,310,2012-10-11 22:34:00
6:33 PM,37.4,28.4,70,30.24,10.0,WNW,15.0,-,N/A,,Clear,300,2012-10-11 23:33:00
6:54 PM,35.6,26.6,70,30.26,10.0,NW,12.7,-,N/A,,Scattered Clouds,320,2012-10-11 23:54:00
7:13 PM,35.6,28.4,75,30.27,10.0,WNW,9.2,-,N/A,,Clear,290,2012-10-12 00:13:00
7:34 PM,35.6,28.4,75,30.27,10.0,West,9.2,-,N/A,,Clear,280,2012-10-12 00:34:00
8:14 PM,35.6,26.6,70,30.28,10.0,West,10.4,-,N/A,,Clear,280,2012-10-12 01:14:00
8:33 PM,33.8,26.6,75,30.29,10.0,West,11.5,-,N/A,,Clear,280,2012-10-12 01:33:00
8:53 PM,33.8,24.8,70,30.29,10.0,WNW,10.4,-,N/A,,Clear,290,2012-10-12 01:53:00
9:13 PM,33.8,24.8,70,30.30,10.0,WNW,9.2,-,N/A,,Clear,290,2012-10-12 02:13:00
10:14 PM,33.8,26.6,75,30.31,10.0,WNW,8.1,-,N/A,,Clear,290,2012-10-12 03:14:00
10:33 PM,33.8,24.8,70,30.31,10.0,West,6.9,-,N/A,,Clear,270,2012-10-12 03:33:00
11:13 PM,33.8,24.8,70,30.32,10.0,West,6.9,-,N/A,,Clear,270,2012-10-12 04:13:00
11:33 PM,33.8,24.8,70,30.32,10.0,West,6.9,-,N/A,,Clear,260,2012-10-12 04:33:00